Regional Weather Roundup
Issued by NWS

Home | Current Version | Previous Version | Text Only | Print | Product List | Glossary On
Versions: 1 2 3 4 5 6 7 8 9 10 11 12 13 14 15 16 17 18 19 20 21 22 23 24 25 26 27
000
ASUS46 KSEW 231610
RWRWA

WASHINGTON REGIONAL WEATHER ROUNDUP
NATIONAL WEATHER SERVICE SEATTLE WA
900 AM PDT SUN JUL 23 2017

NOTE:"FAIR" INDICATES FEW OR NO CLOUDS BELOW 12,000 FEET WITH NO
SIGNIFICANT WEATHER AND/OR OBSTRUCTIONS TO VISIBILITY.

WAZ507-509-555>559-231700-
SEATTLE, TACOMA, EVERETT, AND VICINITY

CITY           SKY/WX    TMP DP  RH WIND       PRES   REMARKS
EVERETT        CLOUDY    59  54  83 VRB7      30.12R
BOEING FIELD   CLOUDY    64  57  78 N10       30.10S
RENTON         CLOUDY    66  57  72 NW8       30.09S
SEATAC AIRPORT CLOUDY    65  55  70 N12       30.10S
JBLM-MCCHORD   CLOUDY    65  61  85 NE5       30.10S
PUYALLUP       CLOUDY    66  61  82 CALM      30.10S
BREMERTON      CLOUDY    61  56  83 CALM      30.11S
JBLM-FT LEWIS  CLOUDY    66  61  85 NW7       30.09S
TACOMA NARROWS CLOUDY    62  57  83 VRB3      30.11S
$$

WAZ001-503-506-510-514-515-231700-
NORTH INTERIOR

CITY           SKY/WX    TMP DP  RH WIND       PRES   REMARKS
BELLINGHAM     CLOUDY    63  60  90 VRB5      30.09R
FRIDAY HARBOR  CLOUDY    62  57  83 SW5       30.11R
EASTSOUND      CLOUDY    61  57  88 CALM      30.10R
PORT ANGELES   CLOUDY    60  53  77 NW9       30.13R
EDIZ HOOK      CLOUDY    56  51  82 W9        30.13R
PORT TOWNSEND  CLOUDY    61  54  77 W9G16     30.11S
NAS WHIDBEY    CLOUDY    59  50  72 W6        30.15R
ARLINGTON      CLOUDY    61  54  77 CALM      30.12R
BURLINGTON     CLOUDY    61  55  82 S3        30.11R
$$

WAZ020-022-039-040-504-511-512-231700-
SOUTHWEST INTERIOR

CITY           SKY/WX    TMP DP  RH WIND       PRES   REMARKS
SHELTON        CLOUDY    64  60  87 SW7       30.08S
OLYMPIA        CLOUDY    65  60  84 N7        30.11R
CHEHALIS       CLOUDY    66  61  82 VRB6      30.10S
KELSO          CLOUDY    63  58  83 NW8       30.09S
VANCOUVER      CLOUDY    66  60  81 NW9G18    30.06R
SCAPPOOSE, OR  CLOUDY    67  59  75 NW9G21    30.06R
PORTLAND, OR   CLOUDY    66  59  78 NW6       30.06S
$$

WAZ021-516-517-231700-
WASHINGTON COAST

CITY           SKY/WX    TMP DP  RH WIND       PRES   REMARKS
FORKS          CLOUDY    58  52  80 NW8       30.15S
HOQUIAM        CLOUDY    59  55  87 W3        30.13R
ASTORIA, OR    CLOUDY    60  53  77 N17       30.12S
$$

WAZ019-023-024-040-567>569-231700-
CASCADE MOUNTAINS AND COLUMBIA GORGE

CITY           SKY/WX    TMP DP  RH WIND       PRES   REMARKS
STAMPEDE PASS  FOG       57  56  96 VRB6      30.15S VSB 1/4
TROUTDALE, OR  CLOUDY    66  60  81 VRB3      30.06R
HOOD RIVER, OR SUNNY     73  61  64 S3        29.99F
THE DALLES, OR SUNNY     78  64  61 NW12      29.95F
$$

WAZ026-027-041>044-520-521-231700-
EAST SLOPES

CITY           SKY/WX    TMP DP  RH WIND       PRES   REMARKS
OMAK           SUNNY     77  52  41 VRB3      29.96S
WENATCHEE      SUNNY     77  56  48 NW10      29.96F
ELLENSBURG     SUNNY     78  58  49 NW18      30.00S
YAKIMA         SUNNY     80  58  46 CALM      29.97F
SUNNYSIDE ARPT   N/A     71  58  62 CALM      29.96F
YAKIMA TC      FAIR      78  55  45 N3        29.96F
$$

WAZ028-034-035-231700-
COLUMBIA BASIN

CITY           SKY/WX    TMP DP  RH WIND       PRES   REMARKS
EPHRATA        SUNNY     83  50  31 VRB3      29.95F
MOSES LAKE     SUNNY     78  56  46 CALM      29.96F
PASCO          SUNNY     79  56  45 SE5       29.95F
RICHLAND ARPT  SUNNY     80  58  46 E6        29.94F
HERMISTON, OR  SUNNY     79  58  48 W7        29.95F
$$

WAZ036>038-231700-
NORTHEAST WASHINGTON

CITY           SKY/WX    TMP DP  RH WIND       PRES   REMARKS
SPOKANE GEIGER MOSUNNY   77  50  38 S6        30.01S
SPOKANE FELTS  SUNNY     76  55  48 N3        29.99F
FAIRCHILD AFB  SUNNY     78  49  36 S7        30.01S
COEURDALENE,ID SUNNY     76  51  41 S9        30.01F
DEER PARK      SUNNY     74  51  44 S3        30.00F
$$

WAZ029>033-231700-
SOUTHEAST WASHINGTON

CITY           SKY/WX    TMP DP  RH WIND       PRES   REMARKS
PULLMAN        SUNNY     77  51  40 S5        30.05S
LEWISTON, ID   SUNNY     75  53  46 NE3       30.00S
WALLA WALLA    SUNNY     81  50  33 SW5       29.98F
PENDLETON, OR  SUNNY     80  47  31 S5        29.99F
$$




USA.gov is the U.S. government's official web portal to all federal, state and local government web resources and services.